Waarnemingen

Advertentie
Mijn weer
Aachen-Orsbach, Duitsland (10505): temperatuur & dauwpunt: 17.05.2018 01:00:00 - 23.05.2018 01:00:00 (CEST)Aachen-Orsbach, Duitsland (10505): temperatuur 5cm & temperatuur -5cm: 17.05.2018 01:00:00 - 23.05.2018 01:00:00 (CEST)Aachen-Orsbach, Duitsland (10505): temperatuur -20cm & temperatuur -100cm: 17.05.2018 01:00:00 - 23.05.2018 01:00:00 (CEST)Aachen-Orsbach, Duitsland (10505): windsnelheid & windstoten: 17.05.2018 01:00:00 - 23.05.2018 01:00:00 (CEST)Aachen-Orsbach, Duitsland (10505): windrichting: 17.05.2018 01:00:00 - 23.05.2018 01:00:00 (CEST)Aachen-Orsbach, Duitsland (10505): luchtdruk: 17.05.2018 01:00:00 - 23.05.2018 01:00:00 (CEST)Aachen-Orsbach, Duitsland (10505): zicht: 17.05.2018 01:00:00 - 23.05.2018 01:00:00 (CEST)Aachen-Orsbach, Duitsland (10505): Zonneschijnduur: 17.05.2018 01:00:00 - 23.05.2018 01:00:00 (CEST)Aachen-Orsbach, Duitsland (10505): neerslag: 17.05.2018 01:00:00 - 23.05.2018 01:00:00 (CEST)
Datum & Tijd tt [°C] td [°C] tt 5cm [°C] tt -5cm [°C] tt -20cm [°C] tt -100cm [°C] ff [km/u] ff [kn] fx [km/u] fx [kn] dd ppp [hPa] vv [km] sd [min] rr [mm]
23.05.2018 01:00:00 14,3 13,9 13,9 15,9 17,3 12,8 7 4 11 6 NO 1016,0 2,5 0 2,4
23.05.2018 00:00:00 14,3 14,2 13,8 16,2 17,4 12,8 9 5 12 7 OZO 1015,8 3,2 0 0,0
22.05.2018 23:00:00 14,5 14,2 14,1 16,6 17,5 12,8 6 3 8 5 NO 1015,6 4,0 0 0,0
22.05.2018 22:00:00 14,7 14,3 14,2 17,0 17,6 12,8 4 2 17 9 N 1014,7 7 0 0,0
22.05.2018 21:00:00 15,1 14,4 14,9 17,6 17,7 12,8 11 6 17 9 N 1014,5 14 0 0,0
22.05.2018 20:00:00 15,4 15,3 15,3 18,1 17,7 12,8 7 4 15 8 W 1014,2 7 0 0,0
22.05.2018 19:00:00 16,3 15,8 16,8 18,6 17,8 12,8 6 3 13 7 OZO 1013,0 9 0 0,1
22.05.2018 18:00:00 15,9 15,6 16,4 18,3 17,9 12,8 9 5 13 7 ZW 1013,2 9 0 1,6
22.05.2018 17:00:00 15,6 14,6 15,6 18,5 17,9 12,8 4 2 10 5 NW 1013,6 16 0 1,1
22.05.2018 16:00:00 15,4 14,7 15,3 19,0 17,8 12,8 9 5 21 12 NW 1013,5 18 0 1,7
22.05.2018 15:00:00 15,9 14,4 15,6 20,2 17,6 12,8 8 4 16 9 Z 1012,8 20 0 3,8
22.05.2018 14:00:00 16,2 15,4 16,0 22,7 17,2 12,8 16 9 23 12 ZO 1012,8 22 3 1,7
22.05.2018 13:00:00 22,1 15,3 26,3 25,2 16,8 12,8 5 3 14 8 WZW 1011,9 20 59 0,0
22.05.2018 12:00:00 20,7 14,9 24,4 23,2 16,5 12,8 4 2 16 8 NNW 1011,9 40 60 0,0
22.05.2018 11:00:00 19,0 14,8 21,4 20,7 16,3 12,8 11 6 16 9 WNW 1012,1 40 53 0,0
22.05.2018 10:00:00 18,8 13,6 20,4 18,7 16,3 12,8 4 2 8 4 WZW 1012,0 40 34 0,0
22.05.2018 09:00:00 18,8 12,9 18,5 16,8 16,3 12,8 2 1 6 4 ZW 1011,9 40 54 0,0
22.05.2018 08:00:00 15,7 13,6 14,6 14,5 16,5 12,8 6 3 12 6 ZZO 1011,7 40 38 0,0
22.05.2018 07:00:00 12,6 11,5 11,4 13,3 16,8 12,7 10 5 12 7 ZO 1012,0 40 27 0,0
22.05.2018 06:00:00 11,1 11,0 9,4 13,4 17,0 12,7 9 5 14 8 OZO 1011,9 40 0 0,0
22.05.2018 05:00:00 11,2 11,2 10,2 13,8 17,3 12,7 14 7 16 8 O 1011,8 6 0 0,0
22.05.2018 04:00:00 13,9 11,7 10,2 14,3 17,6 12,7 8 4 13 7 OZO 1011,5 33 0 0,0
22.05.2018 03:00:00 12,0 11,4 10,2 14,7 17,8 12,7 10 5 13 7 OZO 1011,9 16 0 0,0
22.05.2018 02:00:00 12,5 12,0 11,1 15,3 18,1 12,7 11 6 14 8 OZO 1012,1 12 0 0,0
22.05.2018 01:00:00 12,6 12,6 10,7 15,9 18,4 12,7 6 4 10 6 O 1012,5 4,8 0 0,0
22.05.2018 00:00:00 14,3 12,9 11,8 16,6 18,6 12,7 6 3 10 5 O 1012,5 26 0 0,0
21.05.2018 23:00:00 13,8 13,3 12,2 17,5 18,8 12,7 8 5 13 7 ZO 1012,4 17 0 0,0
21.05.2018 22:00:00 15,2 12,6 13,9 18,2 19,0 12,7 8 4 29 16 NNO 1012,2 41 0 0,2
21.05.2018 21:00:00 15,3 14,0 14,8 19,3 19,1 12,7 15 8 24 13 NW 1012,3 22 0 4,3
21.05.2018 20:00:00 16,8 13,6 15,9 20,7 19,1 12,7 14 8 25 14 W 1012,0 30 0 0,1
21.05.2018 19:00:00 18,4 13,1 15,9 22,1 19,0 12,7 14 7 27 15 O 1011,4 45 0 0,4
21.05.2018 18:00:00 20,8 11,5 20,7 23,9 18,7 12,7 18 10 31 17 ONO 1011,4 51 11 0,0
21.05.2018 17:00:00 22,4 13,1 26,7 25,0 18,3 12,7 18 10 30 16 O 1011,7 50 31 0,0
21.05.2018 16:00:00 21,4 12,0 24,5 25,1 17,9 12,7 20 11 37 20 O 1012,4 50 23 0,0
21.05.2018 15:00:00 21,9 11,9 25,9 25,5 17,5 12,7 24 13 45 24 O 1012,7 50 54 0,0
21.05.2018 14:00:00 21,4 11,0 26,0 24,9 17,1 12,7 27 15 45 25 O 1012,9 50 60 0,0
21.05.2018 13:00:00 20,9 11,7 25,4 23,8 16,7 12,7 26 14 43 23 O 1013,6 50 60 0,0
21.05.2018 12:00:00 20,2 11,8 24,8 22,3 16,5 12,7 24 13 37 20 O 1014,1 50 60 0,0
21.05.2018 11:00:00 18,8 10,8 23,1 20,2 16,4 12,7 21 12 36 19 O 1014,6 50 60 0,0
21.05.2018 10:00:00 17,2 10,8 20,8 17,7 16,4 12,7 20 11 29 16 O 1015,2 50 40 0,0
21.05.2018 09:00:00 14,9 9,2 15,9 15,5 16,5 12,7 17 9 25 14 O 1015,9 50 0 0,0
21.05.2018 08:00:00 12,8 10,1 12,8 15,0 16,7 12,7 15 8 19 11 O 1016,5 45 0 0,0
21.05.2018 07:00:00 12,1 10,7 11,6 15,1 16,8 12,7 11 6 14 7 O 1016,9 40 0 0,0
21.05.2018 06:00:00 12,1 11,5 11,6 15,3 17,0 12,7 8 4 11 6 ONO 1017,1 35 0 0,0
21.05.2018 05:00:00 13,3 11,0 11,9 15,6 17,2 12,7 4 2 8 4 O 1017,4 20 0 0,0
21.05.2018 04:00:00 13,0 10,7 11,6 15,8 17,4 12,7 5 3 6 3 ZO 1018,0 23 0 0,0
21.05.2018 03:00:00 13,4 10,5 11,7 16,0 17,5 12,7 0 0 8 4 N 1018,2 24 0 0,0
21.05.2018 02:00:00 13,1 11,0 11,6 16,4 17,7 12,7 6 3 10 5 ZZW 1019,0 21 0 0,0
21.05.2018 01:00:00 13,9 10,6 12,1 16,9 17,9 12,7 7 4 10 5 NNO 1019,3 23 0 0,0
21.05.2018 00:00:00 14,1 11,5 11,4 17,5 18,1 12,7 3 1 11 6 N 1019,5 26 0 0,0
20.05.2018 23:00:00 13,5 11,4 12,6 18,1 18,2 12,7 5 3 8 4 OZO 1019,7 26 0 0,0
20.05.2018 22:00:00 14,4 11,0 13,6 18,9 18,3 12,7 8 4 11 6 N 1019,6 33 0 0,0
20.05.2018 21:00:00 14,8 10,9 13,3 19,8 18,3 12,7 5 3 11 6 WNW 1018,9 40 0 0,0
20.05.2018 20:00:00 14,7 11,4 14,7 21,2 18,2 12,7 9 5 19 10 Z 1019,1 41 2 0,0
20.05.2018 19:00:00 16,4 11,5 17,4 22,8 17,9 12,7 12 7 39 21 ZO 1019,3 52 24 0,0
20.05.2018 18:00:00 21,1 10,4 25,3 24,0 17,5 12,7 19 10 28 15 O 1018,3 39 27 0,0
20.05.2018 17:00:00 20,6 11,1 23,8 25,5 17,1 12,7 16 9 35 19 ONO 1018,9 30 56 0,0
20.05.2018 16:00:00 21,3 12,4 27,0 25,3 16,5 12,7 20 11 38 20 ONO 1019,4 28 57 0,0
20.05.2018 15:00:00 20,5 12,9 25,9 25,0 16,0 12,7 18 10 36 19 O 1020,3 25 58 0,0
20.05.2018 14:00:00 19,4 11,7 25,0 24,3 15,5 12,7 19 10 31 17 ONO 1021,0 20 60 0,0
20.05.2018 13:00:00 18,2 11,0 24,3 22,8 15,1 12,6 16 9 26 14 ONO 1021,6 20 60 0,0
20.05.2018 12:00:00 16,8 10,2 21,6 20,9 14,7 12,6 16 9 29 16 ONO 1022,2 20 60 0,0
20.05.2018 11:00:00 16,3 9,5 19,9 19,1 14,5 12,6 13 7 22 12 NO 1022,4 25 60 0,0
20.05.2018 10:00:00 14,4 9,3 17,7 16,4 14,5 12,6 6 4 13 7 NNO 1022,7 18 60 0,0
20.05.2018 09:00:00 13,1 8,7 15,0 13,7 14,6 12,6 5 3 10 5 ONO 1022,8 17 60 0,0
20.05.2018 08:00:00 9,8 8,6 9,7 11,6 14,9 12,6 9 5 12 6 O 1022,6 16 60 0,0
20.05.2018 07:00:00 7,7 7,0 5,6 10,4 15,2 12,6 7 4 8 5 ONO 1022,6 16 33 0,0
20.05.2018 06:00:00 6,5 5,9 3,2 10,6 15,5 12,6 3 2 10 5 NNO 1022,7 12 0 0,0
20.05.2018 05:00:00 6,0 5,8 2,6 11,1 15,8 12,6 8 4 9 5 OZO 1022,5 5 0 0,0
20.05.2018 04:00:00 7,2 7,1 2,3 11,7 16,0 12,6 4 2 6 3 OZO 1022,7 5 0 0,0
20.05.2018 03:00:00 8,5 7,7 3,0 12,4 16,3 12,6 4 2 7 4 ONO 1022,8 10 0 0,0
20.05.2018 02:00:00 8,8 7,5 5,0 13,2 16,6 12,6 5 3 13 7 NO 1023,1 14 0 0,0
20.05.2018 01:00:00 9,7 7,4 6,9 13,8 16,9 12,6 8 4 15 8 NO 1023,0 16 0 0,0
20.05.2018 00:00:00 10,4 6,4 6,9 14,6 17,1 12,6 9 5 15 8 NO 1023,1 17 0 0,0
19.05.2018 23:00:00 11,7 5,4 7,3 15,6 17,3 12,6 8 5 12 6 NO 1022,8 19 0 0,0
19.05.2018 22:00:00 12,1 5,7 6,9 17,0 17,3 12,6 6 3 11 6 NO 1022,4 24 4 0,0
19.05.2018 21:00:00 12,4 6,0 11,5 18,7 17,3 12,6 7 4 15 8 NO 1021,9 23 60 0,0
19.05.2018 20:00:00 13,6 6,3 15,4 20,3 17,0 12,6 9 5 18 10 NO 1021,6 24 60 0,0
19.05.2018 19:00:00 14,3 6,4 16,7 21,8 16,7 12,6 10 5 20 11 N 1021,6 19 60 0,0
19.05.2018 18:00:00 14,4 6,5 19,5 23,0 16,2 12,6 9 5 22 12 NNO 1022,0 17 60 0,0
19.05.2018 17:00:00 13,8 5,9 19,4 23,7 15,7 12,6 10 5 20 11 NNO 1022,3 25 60 0,0
19.05.2018 16:00:00 13,3 6,2 18,7 23,7 15,2 12,6 13 7 22 12 NNW 1022,6 20 60 0,0
19.05.2018 15:00:00 12,7 7,1 18,8 22,5 14,7 12,6 11 6 19 11 NNW 1022,9 20 60 0,0
19.05.2018 14:00:00 11,9 6,5 19,3 20,0 14,5 12,6 9 5 19 10 NNW 1023,2 20 44 0,0
19.05.2018 13:00:00 10,5 5,5 15,1 16,2 14,4 12,6 8 4 14 8 NNW 1023,6 20 0 0,0
19.05.2018 12:00:00 9,9 5,3 12,3 15,2 14,3 12,6 8 4 12 6 N 1023,7 18 0 0,0
19.05.2018 11:00:00 9,7 5,3 12,1 14,2 14,3 12,6 7 4 14 7 N 1023,6 22 0 0,0
19.05.2018 10:00:00 9,3 5,5 11,2 13,7 14,3 12,6 8 5 18 10 NNO 1023,5 22 14 0,0
19.05.2018 09:00:00 9,1 5,8 11,0 12,5 14,5 12,6 8 4 16 9 NO 1023,3 20 57 0,0
19.05.2018 08:00:00 7,3 6,1 7,7 10,8 14,7 12,6 5 3 8 4 O 1023,2 17 3 0,0
19.05.2018 07:00:00 5,6 5,2 4,7 10,0 15,1 12,6 2 1 8 4 NNO 1023,1 15 0 0,0
19.05.2018 06:00:00 5,2 4,5 1,6 10,2 15,4 12,6 6 3 10 5 NNW 1022,9 12 0 0,0
19.05.2018 05:00:00 5,3 4,2 2,4 10,9 15,7 12,6 7 4 10 5 N 1022,9 6 0 0,0
19.05.2018 04:00:00 6,4 4,9 3,0 11,6 16,0 12,6 6 4 10 5 N 1022,8 16 0 0,0
19.05.2018 03:00:00 6,9 5,3 4,5 12,3 16,3 12,6 7 4 12 7 NNO 1022,9 16 0 0,0
19.05.2018 02:00:00 7,6 5,7 5,3 13,0 16,5 12,6 8 4 15 8 NNO 1023,0 19 0 0,0
19.05.2018 01:00:00 8,7 6,0 7,2 13,8 16,8 12,6 10 5 16 9 NNO 1022,8 20 0 0,0
19.05.2018 00:00:00 9,4 6,3 7,6 14,7 17,0 12,6 9 5 16 9 N 1022,6 23 0 0,0
18.05.2018 23:00:00 9,9 6,4 8,3 15,7 17,2 12,6 10 5 19 10 N 1022,4 20 0 0,0
18.05.2018 22:00:00 11,1 6,6 9,8 17,0 17,2 12,6 13 7 26 14 N 1022,1 19 0 0,0
18.05.2018 21:00:00 12,4 6,3 11,6 18,6 17,2 12,6 10 5 16 9 N 1021,6 21 20 0,0
18.05.2018 20:00:00 13,6 6,1 14,1 20,1 17,0 12,6 9 5 17 9 N 1021,5 21 58 0,0
18.05.2018 19:00:00 14,7 5,6 16,8 21,5 16,7 12,6 12 6 24 13 N 1021,4 26 60 0,0
18.05.2018 18:00:00 14,9 5,7 17,8 22,6 16,3 12,6 11 6 34 18 NNW 1021,5 33 60 0,0
18.05.2018 17:00:00 14,5 6,5 18,3 23,2 15,8 12,6 10 6 21 11 NNW 1021,9 22 60 0,0
18.05.2018 16:00:00 13,7 5,8 19,2 23,3 15,3 12,6 10 5 23 12 N 1022,1 22 60 0,0
18.05.2018 15:00:00 13,0 5,4 18,8 22,3 14,8 12,5 7 4 24 13 NW 1022,4 21 60 0,0
18.05.2018 14:00:00 12,2 5,7 18,0 20,5 14,5 12,5 11 6 22 12 NNW 1023,0 21 51 0,0
18.05.2018 13:00:00 11,0 5,7 15,5 18,2 14,3 12,5 8 4 19 11 NW 1023,6 21 26 0,0
18.05.2018 12:00:00 10,0 5,0 13,7 15,6 14,2 12,5 9 5 18 10 NW 1023,7 21 25 0,0
18.05.2018 11:00:00 8,7 4,5 10,6 13,8 14,3 12,5 10 6 18 10 NNW 1024,0 21 9 0,0
18.05.2018 10:00:00 8,1 4,4 9,9 12,9 14,3 12,5 7 4 17 9 NW 1023,9 21 6 0,0
18.05.2018 09:00:00 7,8 4,3 9,2 11,9 14,5 12,5 12 7 19 11 NNW 1023,8 22 2 0,0
18.05.2018 08:00:00 7,3 3,8 8,1 11,2 14,7 12,5 9 5 21 11 NNW 1023,7 22 3 0,0
18.05.2018 07:00:00 6,7 3,7 6,7 10,9 14,9 12,5 11 6 19 10 N 1023,5 22 0 0,0
18.05.2018 06:00:00 6,8 4,1 6,7 11,1 15,1 12,5 10 5 22 12 N 1023,3 21 0 0,0
18.05.2018 05:00:00 7,2 4,9 7,2 11,5 15,4 12,5 11 6 18 10 NNW 1023,1 21 0 0,0
18.05.2018 04:00:00 7,1 5,0 7,2 11,7 15,6 12,5 8 4 16 8 NNW 1023,2 20 0 0,0
18.05.2018 03:00:00 7,4 5,6 7,5 11,9 15,9 12,5 9 5 13 7 WNW 1023,2 20 0 0,0
18.05.2018 02:00:00 7,7 5,5 7,6 11,9 16,2 12,5 8 5 13 7 NW 1023,3 22 0 0,0
18.05.2018 01:00:00 6,6 5,0 4,7 12,3 16,5 12,5 11 6 22 12 N 1023,7 18 0 0,0
18.05.2018 00:00:00 7,9 5,5 6,5 13,2 16,8 12,5 13 7 25 13 N 1023,5 21 0 0,0
17.05.2018 23:00:00 8,9 5,7 7,2 14,2 17,0 12,5 10 6 23 12 N 1023,2 21 0 0,0
17.05.2018 22:00:00 10,8 5,4 9,4 15,5 17,2 12,5 19 11 27 15 N 1022,5 29 1 0,0
17.05.2018 21:00:00 12,1 6,0 10,9 17,0 17,2 12,5 14 8 26 14 N 1021,8 28 60 0,0
17.05.2018 20:00:00 14,1 5,5 14,4 18,6 17,1 12,5 19 10 29 16 N 1021,3 30 60 0,0
17.05.2018 19:00:00 15,5 5,7 16,9 20,0 16,9 12,5 16 9 30 16 NNW 1021,0 34 60 0,0
17.05.2018 18:00:00 16,2 5,9 18,7 21,1 16,6 12,5 18 10 30 16 NNW 1021,1 24 60 0,0
17.05.2018 17:00:00 16,3 5,8 19,6 21,6 16,2 12,5 16 8 31 17 NNW 1021,2 35 60 0,0
17.05.2018 16:00:00 15,8 6,6 19,4 21,5 15,9 12,5 18 10 29 16 NW 1021,4 35 60 0,0
17.05.2018 15:00:00 14,9 6,5 18,3 21,2 15,6 12,5 17 9 27 15 NW 1021,7 30 60 0,0
17.05.2018 14:00:00 14,5 5,9 - - - - 14 7 28 15 NNW 1021,9 - - 0,0
17.05.2018 13:00:00 13,0 6,5 17,4 19,5 15,0 12,4 15 8 27 15 NNW 1022,3 20 60 0,0
17.05.2018 12:00:00 11,6 5,7 14,9 18,0 14,8 12,4 17 9 26 14 NW 1022,7 20 60 0,0
17.05.2018 11:00:00 10,3 5,8 13,8 15,5 14,9 12,4 14 7 20 11 NNW 1022,7 25 40 0,0
17.05.2018 10:00:00 9,0 5,7 11,8 13,2 15,0 12,4 12 7 22 12 N 1022,6 20 9 0,0
17.05.2018 09:00:00 8,0 5,3 9,1 12,1 15,2 12,4 13 7 21 11 NW 1022,6 18 0 0,0
17.05.2018 08:00:00 7,8 5,7 8,5 11,8 15,4 12,4 11 6 19 11 NNW 1022,4 15 0 0,0
17.05.2018 07:00:00 7,6 5,4 7,8 11,8 15,7 12,4 12 6 22 12 N 1022,3 15 0 0,0
17.05.2018 06:00:00 7,7 5,8 7,7 12,0 15,9 12,4 12 6 26 14 N 1022,2 15 0 0,0
17.05.2018 05:00:00 7,4 6,7 7,2 12,4 16,2 12,4 12 7 26 14 N 1022,0 15 0 0,0
17.05.2018 04:00:00 9,0 7,8 9,0 13,2 16,4 12,4 14 8 26 14 NNW 1021,6 16 0 0,0
17.05.2018 03:00:00 10,2 9,0 10,0 13,6 16,6 12,4 16 9 27 15 N 1021,1 15 0 0,0
17.05.2018 02:00:00 10,7 9,5 10,2 14,1 16,9 12,4 14 8 30 16 N 1020,9 14 0 0,0
17.05.2018 01:00:00 11,7 9,8 11,3 14,6 17,1 12,4 16 8 26 14 NNW 1020,6 17 0 0,0

tt = temperatuur
td = dauwpunt
tt 5cm = temperatuur 5cm
tt -5cm = temperatuur -5cm
tt -20cm = temperatuur -20cm
tt -100cm = temperatuur -100cm
ff = windsnelheid
fx = windstoten
dd = windrichting
ppp = luchtdruk
vv = zicht
sd = Zonneschijnduur
rr = neerslag

Weerstations in de omgeving